Regional Weather Roundup
Issued by NWS Upton, NY

Current Version | Previous Version | Graphics & Text | Print | Product List | Glossary Off
Versions: 1 2 3 4 5 6 7 8 9 10 11 12 13 14 15 16 17 18 19 20 21 22 23 24 25 26 27

000
ASUS41 KOKX 171908
RWROKX

Regional Weather Roundup
National Weather Service New York NY
200 PM EST SUN DEC 17 2017

Note: "FAIR" indicates few or no clouds below 12,000 feet with no
significant weather and/or obstructions to visibility.

NYZ071-072-176-178-NJZ106-104-172000-
New York City Metro Area

CITY           SKY/WX    TMP DP  RH WIND       PRES   REMARKS
Central Park   CLOUDY    36  23  59 CALM      30.25F
Bronx Bot Gard   N/A     36  23  60 N1        30.25R
Bronx Lehman C   N/A     34  23  64 NE1         N/A
LaGuardia Arpt CLOUDY    36  23  59 NE6       30.24F WCI  31
Queens College   N/A     36  25  64 NE5         N/A  WCI  32
Kennedy Intl   CLOUDY    36  24  62 CALM      30.25F
Breezy Point     N/A     36 N/A N/A SE1         N/A
Brooklyn Coll    N/A     37  25  60 SE5         N/A  WCI  34
Staten Island    N/A     37  25  60 W1          N/A
Newark/Liberty CLOUDY    37  24  59 NE5       30.24F WCI  33
Teterboro      CLOUDY    36  23  59 SE3       30.23F
$$

NYZ177-179-078>081-172000-
Long Island New York

CITY           SKY/WX    TMP DP  RH WIND       PRES   REMARKS
Jones Beach      N/A     34 N/A N/A NE1         N/A
Wantagh          N/A     34  25  69 E5          N/A  WCI  30
Matinecock Pt    N/A     32 N/A N/A E3          N/A
Farmingdale    CLOUDY    33  22  63 CALM      30.24F
MacArthur/ISP  CLOUDY    33  22  63 N5        30.24F WCI  29
Shirley        CLOUDY    33  22  63 NW8       30.25F WCI  26
Mt Sinai Harb    N/A    N/A N/A N/A NW3         N/A
Westhampton    CLOUDY    32  19  58 NW8       30.25F WCI  25
East Hampton   CLOUDY    30  16  55 NW6       30.24F WCI  24
Southold         N/A     32  18  55 NW3         N/A
Montauk          N/A     34  10  37 NW10      30.24F WCI  26
$$

NYZ052-065-067-172000-
Hudson Valley

CITY           SKY/WX    TMP DP  RH WIND       PRES   REMARKS
White Plains   CLOUDY    31  20  63 CALM      30.21F
Larchmont Harb   N/A     32 N/A N/A NE2         N/A
Croton On Huds   N/A     34 N/A N/A CALM        N/A
Somers           N/A     32  21  64 W2          N/A
Brewster         N/A     30  16  55 N3          N/A
Newburgh       PTSUNNY   28  21  74 VRB6      30.23F WCI  22
Montgomery     CLOUDY    31  21  66 SW5       30.21F WCI  26
Otisville        N/A     32  21  64 SW3         N/A
Warwick          N/A     32  21  64 CALM        N/A
Suffern          N/A     32  23  69 NW1         N/A
Poughkeepsie   CLOUDY    29  15  56 CALM      30.24F
Albany         PTSUNNY   26  11  52 NW12      30.25F WCI  16
$$

NJZ001-105-106-008-010-013-015-019>022-104-172000-
New Jersey

CITY           SKY/WX    TMP DP  RH WIND       PRES   REMARKS
Newark/Liberty CLOUDY    37  24  59 NE5       30.24F WCI  33
Teterboro      CLOUDY    36  23  59 SE3       30.23F
Caldwell       CLOUDY    37  24  59 CALM      30.23F
Somerville     MOSUNNY   38  26  62 CALM      30.21F
Linden         FAIR      37  24  57 CALM      30.24F
Perth Amboy      N/A     36 N/A N/A SE3         N/A
Sussex         CLOUDY    33  23  66 CALM      30.21F
Andover        NOT AVBL
Trenton        CLOUDY    40  27  59 CALM      30.22F
Millville      CLOUDY    47  31  53 CALM      30.20F
Atlantic City  CLOUDY    47  36  65 SE8       30.21F
Wrightstown    PTSUNNY   43  31  63 NE5       30.18F
Toms River     CLOUDY    42  32  67 NE6       30.22F
Belmar         CLOUDY    39  30  70 E5        30.24F
$$

PAZ047>061-062-071-172000-
Eastern Pennsylvania

CITY           SKY/WX    TMP DP  RH WIND       PRES   REMARKS
Philadelphia   CLOUDY    43  27  53 CALM      30.22F
Allentown      MOSUNNY   36  24  62 N5        30.21F WCI  32
Scranton       CLOUDY    32  23  69 N3        30.18F
$$

CTZ002-004>006-009-010-012-RIZ004-006-007-MAZ004-011-015-172000-
Southern New England

 In CT

CITY           SKY/WX    TMP DP  RH WIND       PRES   REMARKS
Bradley Intl   CLOUDY    29   9  43 W10       30.23F WCI  20
Hartford       CLOUDY    30  11  45 CALM      30.25F
Danbury        CLOUDY    31  17  56 W3        30.22F
Wtrbury/Oxford MOSUNNY   31  15  52 CALM      30.20F
Norwalk Harbor   N/A    N/A N/A N/A NW5         N/A
Bridgeport     CLOUDY    32  17  54 NW6       30.24F WCI  26
Meriden        CLOUDY    32   9  38 N3        30.23F
New Haven      CLOUDY    33  14  45 NW5       30.24F WCI  29
Chester        FAIR      32   9  37 VRB5      30.21F WCI  27
Groton         PTSUNNY   32   7  35 N10       30.23F WCI  24
Willimantic    MOSUNNY   29   8  41 W7        30.24F WCI  22

 In RI

CITY           SKY/WX    TMP DP  RH WIND       PRES   REMARKS
Providence     PTSUNNY   30   7  37 W7        30.23F WCI  23
Block Island   CLOUDY    32  11  41 NW8       30.23F WCI  25
Westerly       CLOUDY    32   4  30 NW5       30.24F WCI  27

In MA

CITY           SKY/WX    TMP DP  RH WIND       PRES   REMARKS
Boston         MOSUNNY   30   1  29 NW9       30.22F WCI  22
Worcester      SUNNY     24   0  35 NW8       30.16F WCI  15
Westfield      CLOUDY    29   8  41 NW9       30.22F WCI  20
Provincetown   SUNNY     29  14  53 NW12G21   30.23S WCI  19
Nantucket      MOSUNNY   29  12  49 NW8       30.22F WCI  21
$$

ANZ330-335-338-340-345-350-353-355-172000-
Coastal Marine Observations


STATION/POSITION TIME  SKY/WX   TEMP    WIND        PRES    VSBY  WAVE
                                AIR SEA DIR/SP/G                  HT/PER
                 (UTC)          (F)     (DEG/KT/KT) (MB)    (MI)  (FT/S)
NY Harb Entrance 1750            38 50   50/  2/  6 1024.3          1/ 6
20 S Fire Island 1750            37 50   20/  4/  6 1024.8          2/ 6
15 E Barnegat Li 1830               49                N/A           2/ 5
Hudson Canyon    1750            43 54   20/  2/  4 1024.0          3/ 6
Kings Point      1848            34 42   80/  2/  3 1024.9
Execution Rocks  1830            36      60/  4/  6   N/A
Western LI Sound NOT AVBL
Central LI Sound NOT AVBL
Robbins Reef     1848            36      20/  2/  4 1024.6
$$


>>>>>>>>>>>>>>>>>>>>>>>>>>>> KEY <<<<<<<<<<<<<<<<<<<<<<<<<<<
>                                                          <
>     SKY/WX - Sky Condition/Present Weather               <
>     TMP    - Temperature in Fahrenheit                   <
>     DP     - Dew Point in Fahrenheit                     <
>     RH     - Relative Humidity in Percent                <
>     WIND   - Direction (from) and Speed in MPH           <
>     PRES   - Mean Sea Level Pressure (inches of Hg)      <
>     WCI    - Wind Chill Index                            <
>     VSB    - Visibility in Miles                         <
>     HX     - Heat Index                                  <
>     TC     - Temperature in Celsius                      <
>     VRB    - Varibale Wind Direction                     <
>                                                          <
>>>>>>>>>>>>>>>>>>>>>>>>>>>> KEY <<<<<<<<<<<<<<<<<<<<<<<<<<<




USA.gov is the U.S. government's official web portal to all federal, state and local government web resources and services.